RH
63 59 54 49 45 41 40 41 42 41 39 37 33 33 36 40 44 50 62 79 94 100 99 96 100 101 100 101 97 89 86 88 93 92 84 80 69 55 65 87 93 86 79 79 75 61 49 43 37 37 40 43 53 68 81 85 85 89 86 82 86 87 90 97 94 86 85 89 95 98 101 103 100 101 103 100 99 99 97 91 80 69 60 51 51
67 64 62 60 57 54 53 52 52 50 46 41 36 32 30 31 35 40 43 50 64 83 97 99 99 99 98 100 101 97 93 89 88 84 76 73 65 54 58 74 84 79 74 85 87 72 66 63 50 46 46 46 60 82 92 92 93 96 97 96 94 95 100 100 90 82 80 85 91 94 97 96 91 94 98 94 94 98 102 100 89 77 65 54 56
64 63 64 66 67 65 62 58 54 50 46 44 40 36 33 30 29 31 33 36 39 48 64 82 94 99 99 98 99 102 100 96 92 83 75 69 60 52 50 57 72 75 73 85 88 72 71 74 59 49 52 61 79 94 96 96 98 99 101 102 99 101 105 98 86 80 76 77 82 87 89 87 84 88 92 91 93 99 106 104 93 82 69 59 64
60 60 61 64 67 67 63 58 54 50 48 46 43 40 38 36 34 31 28 28 29 28 32 43 61 82 98 102 99 99 99 100 100 94 88 82 70 58 51 50 63 74 78 87 85 69 66 69 62 60 70 80 89 97 99 98 101 103 101 99 95 96 98 95 90 85 78 72 73 76 77 78 79 81 84 90 96 103 106 99 90 82 70 65 70
64 65 66 68 72 72 68 64 62 60 58 53 51 49 43 38 36 34 32 28 26 24 23 23 28 44 71 92 100 100 95 96 102 101 98 93 79 63 54 55 61 71 86 93 84 71 64 64 66 69 75 82 87 95 101 98 92 91 89 89 88 87 87 88 87 84 79 75 72 70 71 74 75 75 80 89 97 104 103 94 87 78 69 70 69
71 73 74 76 79 78 76 76 74 70 65 61 58 54 46 38 29 25 27 26 25 23 21 19 19 21 34 57 79 93 97 97 100 101 102 100 88 71 63 64 63 68 89 98 84 72 67 66 69 67 68 80 87 87 84 74 63 58 57 57 58 62 68 74 77 77 79 83 84 83 82 80 77 79 88 94 94 97 96 91 84 75 72 72 63
74 77 79 80 81 83 85 88 88 82 74 67 62 56 48 38 27 20 18 17 20 21 20 19 18 15 16 23 37 57 78 96 100 96 100 106 102 89 75 67 60 61 82 96 82 70 70 70 70 72 73 71 66 63 57 46 40 37 37 36 36 40 47 54 60 63 71 82 89 93 93 89 86 90 98 98 93 93 93 84 75 73 75 67 51
76 78 82 85 86 89 91 91 90 85 78 71 65 60 54 43 30 19 15 15 18 21 23 23 21 19 17 16 18 22 40 74 97 97 96 102 108 101 80 63 50 47 71 93 82 64 67 72 72 76 72 56 48 49 42 32 31 32 32 32 31 32 37 43 48 51 58 68 77 85 91 95 98 102 104 101 97 96 90 77 71 72 68 53 44
80 80 83 86 89 92 92 89 87 83 79 76 71 65 60 50 34 20 14 17 26 36 39 36 36 35 27 20 19 16 16 37 72 98 101 99 106 107 93 75 55 44 63 88 79 60 59 68 73 72 62 50 48 45 31 26 30 30 28 28 28 28 31 36 44 51 52 56 69 81 87 95 103 105 105 104 99 91 81 74 72 64 49 41 46
81 82 83 86 89 91 90 90 89 86 83 82 81 76 68 54 36 23 21 28 42 57 61 59 62 61 49 36 28 24 19 16 40 85 105 99 101 107 103 93 66 45 59 80 77 63 60 66 72 66 54 50 49 38 28 28 29 26 27 27 26 28 29 31 40 50 51 53 69 83 86 95 104 101 101 104 95 82 76 75 66 48 40 42 47
77 79 83 87 88 88 90 94 93 90 89 89 88 84 72 54 37 28 37 53 67 76 78 79 82 78 70 60 45 36 30 17 33 81 104 99 100 103 105 103 79 55 65 82 79 70 66 67 70 64 57 58 54 38 28 29 28 28 30 27 24 26 28 29 36 49 53 53 67 84 92 98 100 98 102 100 87 78 76 69 52 40 43 43 39
68 71 76 81 83 84 89 95 94 91 92 91 93 88 70 50 38 37 55 79 88 88 85 82 83 82 80 76 66 58 46 31 47 89 105 99 100 100 101 106 95 79 83 93 84 72 68 69 71 72 71 71 60 39 27 30 32 31 29 25 24 24 22 25 38 53 57 57 72 94 102 99 94 96 101 91 77 74 67 52 43 43 44 39 38
62 64 67 71 76 80 87 93 94 94 94 94 97 89 65 44 39 49 72 92 96 94 92 86 81 81 82 79 72 69 59 47 63 96 104 98 101 102 100 104 105 96 98 102 85 63 64 75 79 84 85 73 51 33 30 35 34 30 28 23 22 22 17 25 46 58 58 67 87 103 105 97 92 96 98 85 70 62 50 43 47 48 41 40 46
61 61 60 64 70 76 85 91 93 94 95 99 100 84 57 42 45 62 84 97 98 99 99 97 92 89 90 89 83 79 68 58 70 95 103 99 101 101 98 101 105 100 100 103 81 54 63 86 92 92 82 59 41 34 36 39 34 29 27 21 20 21 16 29 55 63 65 84 101 103 101 97 95 100 99 82 61 47 41 43 49 46 41 45 50
61 61 61 67 73 79 86 89 91 93 96 101 97 74 50 44 56 77 94 100 100 101 99 99 99 97 98 98 97 96 85 72 79 97 102 100 101 101 99 101 104 101 100 102 92 79 83 93 95 91 71 46 40 42 40 39 34 27 22 21 22 20 22 44 70 75 81 99 104 98 98 101 103 102 87 63 47 41 41 45 45 43 43 46 50
67 69 73 79 83 86 90 90 90 92 96 99 87 62 46 52 69 86 96 99 100 100 100 100 100 100 101 100 99 102 99 90 92 100 101 98 100 101 99 99 102 103 100 99 101 102 101 97 98 95 75 53 48 47 42 38 32 25 23 24 22 23 38 64 83 87 94 101 95 91 98 102 97 80 57 44 43 42 41 45 47 44 42 43 49
79 80 83 87 88 89 92 91 89 92 96 91 73 53 49 63 80 90 94 97 98 99 100 98 94 95 102 102 98 97 100 101 100 99 100 101 101 101 101 100 100 102 100 99 100 103 103 103 103 101 92 77 60 50 43 36 29 27 26 25 27 39 57 74 87 97 101 97 94 98 100 90 70 51 43 44 45 40 40 45 48 46 44 46 52
81 81 86 91 91 90 90 89 90 93 90 75 57 50 58 73 84 88 87 88 88 92 98 98 94 95 95 94 95 96 98 102 100 96 98 101 99 98 100 100 99 100 101 100 100 100 98 97 98 101 100 88 66 51 42 34 32 34 35 39 51 63 71 78 88 98 98 94 98 98 82 62 49 44 46 46 42 42 45 46 48 48 49 53 53
79 83 92 96 93 90 87 87 92 91 76 57 48 54 69 81 85 84 81 78 75 74 82 93 100 99 84 72 82 97 100 100 100 95 95 101 103 101 102 102 100 102 102 96 93 94 91 89 96 102 96 80 64 52 42 40 44 46 52 67 76 73 72 76 81 87 93 95 90 75 56 48 48 48 46 44 47 53 52 49 50 51 53 56 48
79 85 92 92 89 88 87 89 91 79 55 43 48 61 74 82 87 90 89 85 75 65 68 80 93 99 86 67 74 95 101 101 102 94 83 85 90 88 88 90 87 90 97 95 88 87 90 94 102 104 90 72 58 47 41 46 53 55 67 85 86 72 66 69 74 85 93 85 68 54 49 51 49 45 45 52 59 60 56 53 54 55 56 52 35
82 87 89 87 85 87 91 93 82 58 40 42 56 69 79 87 97 102 99 97 91 76 65 69 81 95 94 80 83 100 102 98 102 95 78 74 74 69 70 76 78 82 91 95 92 93 99 101 97 86 69 52 41 37 39 46 55 67 82 90 83 71 67 72 83 91 84 66 54 53 54 51 47 48 57 67 70 64 58 56 57 58 52 37 22
89 89 88 86 85 90 95 88 63 39 38 53 66 76 90 99 101 100 99 104 100 76 58 65 84 97 96 88 94 105 101 97 103 98 83 76 71 65 72 86 94 94 93 96 101 103 97 83 67 52 40 32 32 37 42 49 67 87 95 89 81 77 78 84 88 81 66 57 57 58 54 51 54 63 73 77 72 63 59 59 60 54 39 23 20
94 92 90 87 89 97 94 69 41 35 53 69 75 84 98 101 97 99 102 97 81 61 58 77 96 101 99 97 100 102 99 99 103 93 76 66 62 67 84 98 102 100 99 101 101 93 74 54 40 31 27 32 41 47 55 70 90 98 95 89 85 84 83 81 75 66 60 61 61 57 56 62 71 79 82 77 68 62 63 64 59 46 30 23 24
95 92 88 84 93 98 77 44 35 54 75 78 74 82 95 95 97 104 98 77 60 56 66 87 100 101 100 100 100 100 100 101 102 97 88 81 79 87 100 103 99 100 103 97 83 66 48 34 28 29 35 47 59 69 79 93 99 95 89 84 80 75 70 67 65 63 64 63 59 58 67 79 88 88 81 72 68 68 69 66 57 44 32 27 25
97 89 84 89 98 85 51 35 49 72 80 72 68 83 96 97 101 101 81 59 53 57 68 88 101 101 100 101 100 100 101 99 99 101 100 99 99 100 100 99 100 103 98 81 59 39 27 26 37 54 67 75 82 87 92 92 87 83 80 74 68 66 65 65 67 66 65 62 61 68 83 95 96 87 75 72 75 76 73 67 57 43 31 27 25
96 86 86 99 96 63 35 41 60 69 67 62 67 87 100 99 101 96 71 48 48 60 78 98 104 99 98 100 99 100 101 100 100 100 99 100 100 100 99 101 103 97 80 57 36 25 30 49 72 86 87 85 84 83 80 77 73 72 70 69 68 69 68 69 70 69 67 66 71 84 97 100 92 80 74 78 82 80 77 71 57 40 31 30 27
94 86 94 104 82 43 32 48 58 60 63 66 73 92 102 99 100 99 83 65 67 83 99 104 100 99 99 97 98 102 101 99 99 100 101 101 100 101 103 100 92 78 60 41 31 40 61 82 91 89 81 75 73 70 66 65 66 67 70 72 72 72 73 73 72 70 70 74 84 97 102 95 84 78 80 84 84 81 80 70 52 37 34 33 28
90 85 98 97 63 32 36 52 55 58 68 76 83 96 103 101 100 100 93 87 90 100 106 101 97 102 103 99 101 104 102 101 102 101 99 100 102 102 98 90 79 68 55 46 51 69 86 91 84 76 72 68 65 64 63 64 66 69 72 74 74 73 73 71 70 70 74 82 95 103 99 88 80 81 86 88 83 80 77 62 42 34 35 34 29
85 85 97 84 47 31 43 52 51 56 66 77 89 100 103 101 100 100 97 89 82 81 91 101 102 100 101 102 99 94 94 99 102 99 100 103 101 94 88 81 74 64 54 53 67 84 89 83 74 70 67 64 62 61 61 62 66 69 70 70 70 70 69 69 70 75 81 92 103 102 92 84 82 85 88 86 81 78 68 48 33 32 36 34 29
84 88 94 71 36 32 48 54 55 59 64 69 79 92 102 103 100 101 103 96 77 60 64 86 101 101 101 100 89 79 82 87 84 82 88 94 88 81 78 76 70 64 59 61 76 89 87 78 71 67 63 60 57 55 54 56 60 62 62 63 64 66 69 72 77 84 94 103 104 95 86 84 87 89 86 82 79 70 53 35 28 31 33 32 30
85 90 89 61 33 36 52 57 60 65 66 63 63 75 95 104 101 99 102 103 96 76 59 64 78 87 97 101 91 80 79 82 81 78 77 76 74 75 78 78 76 78 80 81 86 91 86 78 73 67 60 56 54 53 54 56 57 57 59 61 65 69 74 81 89 97 104 104 96 89 86 88 90 88 84 81 74 58 37 27 27 28 29 29 29
86 89 84 56 33 41 55 57 60 64 66 67 69 77 93 102 101 101 100 101 105 98 75 61 60 66 79 91 90 81 71 68 76 85 84 81 81 83 87 89 87 88 91 91 92 91 85 81 79 70 58 52 51 52 54 54 54 57 61 66 72 78 85 93 100 103 102 97 91 88 89 90 88 86 83 78 66 45 28 25 27 27 29 28 25
86 86 79 54 34 43 58 60 58 60 64 71 79 88 98 101 99 101 101 97 97 91 75 60 53 52 57 63 65 63 56 49 55 73 87 94 97 96 96 96 93 90 89 90 90 89 84 82 80 69 55 49 49 51 53 54 55 60 67 75 83 91 96 100 103 101 97 92 90 90 90 88 85 83 80 71 54 35 25 25 27 28 30 28 24
86 82 77 56 35 42 60 63 57 58 67 76 81 87 98 102 99 99 102 100 97 93 82 70 57 45 43 47 48 47 45 39 38 50 68 86 97 99 95 89 82 76 71 68 68 68 67 68 65 57 49 47 50 52 54 56 59 65 75 85 94 99 102 102 101 97 93 91 92 90 86 83 80 77 71 57 39 28 24 25 26 28 30 31 26
87 82 80 62 37 39 59 65 59 59 69 80 85 88 96 101 100 99 101 100 100 101 98 91 74 50 34 32 35 36 37 37 34 35 42 57 72 82 83 79 73 63 53 47 44 44 45 46 46 45 45 47 51 54 54 56 64 73 85 95 99 101 103 102 97 94 93 92 90 84 79 77 73 66 57 42 29 25 26 25 26 28 29 31 30
88 81 83 71 42 34 52 64 63 62 66 77 89 97 100 101 100 100 100 100 100 100 97 93 86 70 54 47 45 38 31 30 31 32 33 36 43 51 57 60 58 52 43 36 34 34 35 35 35 39 45 50 54 56 57 63 74 86 95 100 102 102 102 98 93 94 94 89 83 77 72 69 62 52 42 33 26 26 27 26 26 28 28 28 29
89 79 87 83 51 32 42 55 58 61 62 66 80 95 100 99 100 101 99 99 101 101 97 94 91 86 82 84 84 74 54 38 30 28 29 31 32 34 38 39 38 35 31 29 30 31 31 32 35 42 50 55 60 67 74 82 91 98 100 102 103 101 98 95 94 94 90 81 74 70 63 56 49 39 32 28 26 27 28 27 27 28 27 26 27
89 79 91 93 62 34 36 46 50 54 57 58 67 84 93 96 100 102 99 99 100 100 100 100 96 90 86 88 96 98 88 72 53 36 26 25 28 29 30 30 28 27 26 26 28 30 32 38 45 52 59 66 75 85 93 97 100 101 102 103 102 98 96 96 94 88 79 71 64 59 50 43 37 31 27 27 28 28 29 29 28 29 29 28 28
92 82 93 100 71 36 31 40 42 44 49 52 59 73 84 90 97 100 98 99 101 99 99 100 100 98 96 95 97 101 100 96 88 70 45 28 23 25 27 26 24 24 24 25 30 36 41 47 55 64 76 86 94 99 100 100 102 104 103 100 99 97 98 96 87 76 68 60 52 45 39 33 30 28 27 29 30 29 30 31 31 31 31 31 30
95 89 96 100 75 38 27 35 37 37 42 49 57 68 78 85 94 99 98 99 101 100 100 100 99 99 101 100 99 101 100 99 103 100 80 52 32 25 25 24 24 26 30 35 41 46 52 60 72 85 96 101 101 101 101 102 104 103 99 98 100 101 96 87 74 62 55 47 39 35 32 28 27 28 28 29 30 31 32 33 33 34 35 34 34
95 94 97 93 69 38 25 29 32 34 40 48 56 67 74 79 89 97 97 97 99 100 100 102 100 99 100 100 99 101 101 99 100 104 100 85 63 45 35 34 36 39 44 49 54 60 68 80 92 100 104 104 102 101 104 104 101 99 100 102 102 94 81 68 57 47 41 36 31 29 27 26 26 28 28 29 32 33 34 36 37 37 39 39 38
91 94 96 86 61 34 24 26 29 32 40 47 53 63 70 73 84 96 96 93 98 102 102 102 102 100 98 99 100 101 101 101 100 99 101 102 95 81 69 64 64 65 68 71 76 83 91 98 102 104 105 105 104 104 103 101 99 101 104 100 89 74 59 49 41 35 32 29 27 25 25 26 27 28 29 31 33 35 36 39 41 42 44 45 45
93 96 99 90 63 34 22 25 28 32 39 46 50 57 66 71 80 90 90 87 93 101 103 103 104 101 98 99 103 103 101 100 101 101 101 102 103 100 95 91 87 87 90 94 98 102 104 104 104 105 106 106 105 102 100 100 103 104 97 80 63 50 41 35 31 28 26 25 24 24 25 26 27 29 31 32 34 37 40 42 45 49 50 51 52
98 99 102 99 76 41 21 23 30 32 37 44 47 51 58 65 73 81 85 86 90 99 104 103 101 100 100 101 102 103 101 100 102 104 103 101 101 103 104 100 95 96 101 105 107 108 107 105 105 107 107 105 102 100 102 104 102 89 68 49 37 33 29 26 24 24 23 23 25 26 27 28 30 31 33 35 37 40 43 46 49 53 55 56 58
99 98 101 105 91 57 26 20 28 33 36 40 43 45 49 55 63 72 81 88 92 96 101 103 101 100 102 102 101 100 102 102 103 103 100 96 95 99 102 102 101 104 107 107 106 105 105 106 107 107 104 102 103 104 101 91 73 50 33 26 24 24 23 22 22 23 24 25 27 28 30 32 33 35 36 38 41 42 45 48 50 53 56 58 59
97 97 99 104 102 83 51 26 22 28 34 36 38 39 42 47 54 60 70 82 87 87 91 98 101 100 101 101 100 100 103 104 104 103 98 93 92 96 102 105 106 105 104 104 105 106 107 107 106 106 106 107 104 93 73 51 33 23 20 21 21 21 21 23 24 25 27 28 30 32 33 35 36 38 40 41 43 44 44 46 48 48 50 52 53
95 96 98 100 103 102 86 58 36 27 26 28 33 36 38 41 45 48 56 69 75 72 76 89 98 99 99 100 100 101 102 103 103 103 101 98 97 99 101 102 102 102 104 106 107 106 104 104 105 106 104 93 73 50 32 21 19 20 21 21 21 23 25 26 27 29 30 32 33 35 37 38 39 41 42 42 43 44 43 42 43 44 43 43 45
91 92 98 100 100 102 103 93 75 57 41 31 28 29 32 37 40 41 47 59 63 60 65 81 94 97 99 101 100 99 100 100 101 103 103 100 98 100 101 103 104 105 105 105 103 102 102 102 97 85 68 47 29 20 18 20 21 22 22 23 25 27 28 29 31 32 33 35 37 38 39 41 41 41 41 41 40 40 40 38 37 38 37 36 36
92 92 96 100 100 100 102 101 97 90 80 68 55 42 33 33 37 39 46 56 58 56 62 80 94 99 100 100 99 100 101 101 102 103 104 102 101 103 104 105 104 101 98 97 97 95 86 74 58 41 27 19 18 20 22 23 23 24 26 28 28 30 31 32 34 35 35 37 39 40 40 41 40 38 38 38 36 35 36 35 33 32 32 31 30
95 94 96 98 99 101 101 98 92 90 91 93 90 74 51 36 34 39 46 51 53 56 69 86 97 100 100 100 100 100 102 102 104 105 104 102 102 104 104 101 96 90 84 78 70 57 42 30 23 19 19 21 23 24 24 26 28 29 30 30 31 33 34 34 35 37 37 38 38 38 37 36 36 35 34 34 33 32 31 30 30 30 29 29 29
98 97 99 100 98 99 100 98 94 93 93 93 93 83 61 39 31 35 40 44 51 64 80 93 99 100 100 100 100 100 101 102 103 103 103 103 104 103 97 87 74 60 49 38 29 22 19 19 21 23 24 26 27 28 30 31 31 31 32 33 34 34 35 35 35 36 35 34 33 33 32 32 32 32 31 30 31 31 31 32 33 34 34 33 33
Wind_Speed
28 29 31 33 36 39 41 43 46 49 52 57 63 68 73 76 77 77 77 77 77 76 76 76 77 80 82 81 80 78 77 77 77 75 72 69 65 61 59 59 58 57 57 57 57 56 56 55 53 52 52 52 51 51 51 51 52 53 53 53 52 52 51 51 50 49 48 48 48 49 51 53 54 56 58 59 61 63 63 63 64 64 65 67 68
25 25 26 28 30 32 34 36 39 42 45 49 54 60 66 72 76 78 79 78 78 77 76 75 75 76 78 80 81 80 80 79 77 74 71 69 67 62 60 60 61 58 56 56 57 56 54 53 50 49 51 51 49 49 50 50 50 51 51 51 50 51 51 51 50 50 49 48 48 49 51 53 54 57 59 61 62 64 64 64 64 65 67 69 69
24 23 24 25 27 28 30 33 35 38 41 43 47 51 55 60 66 72 76 78 79 79 78 78 77 76 75 76 77 79 79 78 74 70 68 67 67 65 62 60 61 59 54 53 55 55 53 50 48 48 49 48 46 47 48 49 50 50 51 50 49 49 50 51 51 50 50 50 50 51 52 54 56 58 61 62 64 66 65 65 65 67 69 70 71
24 23 23 24 25 26 28 29 31 33 35 37 39 42 47 51 56 61 66 71 75 78 79 79 79 79 77 74 72 73 75 75 72 68 65 65 66 66 64 63 62 60 55 53 54 55 52 50 48 47 47 46 45 46 45 45 46 48 49 50 50 49 50 51 51 52 52 52 53 53 54 55 57 60 62 64 66 67 67 66 67 68 70 71 72
26 26 26 25 25 27 28 30 31 32 33 35 37 39 41 44 48 52 57 61 65 70 75 78 79 80 81 80 76 72 72 73 72 68 65 67 67 66 66 65 62 60 57 54 54 54 53 51 50 49 46 45 45 46 44 42 43 43 44 45 47 49 50 51 51 53 54 55 55 55 55 56 58 61 63 65 67 68 68 69 69 69 71 72 72
30 30 29 29 28 29 31 33 34 36 37 38 40 41 42 43 44 47 51 55 58 62 67 72 76 79 81 84 84 80 76 74 73 71 68 68 68 68 67 66 63 62 60 55 54 54 54 54 53 52 49 46 46 45 44 41 40 38 38 39 41 44 47 49 51 53 54 55 55 55 56 57 59 62 64 66 67 68 69 69 69 70 72 72 71
34 33 33 32 32 33 35 38 39 41 42 43 44 45 46 47 47 47 48 51 54 58 61 64 69 72 76 80 85 87 85 81 78 75 72 70 69 69 68 66 65 65 63 57 54 53 54 55 54 54 53 50 47 45 41 39 37 35 36 37 38 40 43 46 50 52 54 55 55 55 56 58 60 62 64 66 67 68 68 67 68 70 72 71 70
37 37 36 36 36 38 40 41 43 44 45 46 47 48 49 50 51 52 51 50 51 54 57 60 62 65 68 72 77 81 85 87 84 80 78 75 72 70 70 67 66 67 65 59 55 51 53 55 54 55 55 51 47 43 40 39 38 37 38 39 40 40 41 44 47 50 53 54 54 53 55 57 59 61 62 65 66 66 65 66 68 70 70 69 69
38 38 38 38 39 41 43 45 46 47 47 47 49 50 52 52 53 53 52 51 50 49 50 53 55 57 61 65 69 73 77 81 85 85 83 80 74 71 72 71 68 68 66 62 58 53 52 54 56 56 55 51 46 43 41 40 39 39 40 41 42 43 44 45 47 49 50 50 51 52 53 54 55 58 60 62 63 62 64 67 68 68 67 67 68
39 39 39 40 41 42 44 47 49 49 50 49 50 51 52 54 55 53 51 48 46 45 44 44 44 47 50 54 60 66 70 72 77 82 81 78 74 69 70 72 70 67 66 64 60 55 52 53 55 57 55 51 46 43 41 41 40 41 42 42 43 45 46 47 48 49 49 48 49 51 51 50 52 55 57 59 59 61 64 67 66 66 66 66 66
41 41 41 41 42 44 46 48 50 50 51 51 51 52 52 53 53 50 46 43 41 40 40 38 37 39 41 43 47 55 62 64 69 75 75 72 72 69 66 68 69 66 65 63 60 55 52 52 55 57 54 50 45 42 42 42 43 44 44 43 44 45 48 49 50 50 49 48 49 50 49 49 51 53 55 56 58 61 64 65 64 64 65 66 66
43 43 43 43 44 45 47 48 50 50 51 51 52 51 50 50 49 46 41 38 37 37 35 33 34 35 35 36 38 42 50 56 61 69 69 66 68 69 65 64 65 64 64 62 57 54 52 53 56 57 52 47 43 41 42 44 45 45 44 43 44 47 49 49 50 50 49 48 48 48 47 49 50 53 54 56 58 61 63 63 62 63 64 65 66
45 45 45 45 46 47 48 49 50 50 50 51 51 49 47 47 44 40 37 35 33 32 31 30 30 31 32 33 33 34 39 45 52 61 64 61 64 68 65 62 61 61 62 60 55 52 53 55 56 54 49 44 42 41 43 45 46 44 42 43 46 48 50 51 50 49 49 48 46 46 47 49 51 53 55 57 59 61 61 60 60 61 63 64 65
46 46 46 47 48 48 49 50 50 50 50 50 49 46 44 42 39 35 33 31 28 26 26 25 24 25 25 27 28 27 29 35 43 51 56 57 60 64 64 61 59 57 57 56 53 53 54 54 52 48 45 43 43 44 45 46 46 44 43 46 47 48 50 51 50 49 48 47 45 45 48 51 53 53 56 58 59 59 59 58 59 61 62 63 64
46 47 47 48 49 49 49 50 50 49 49 49 47 43 40 37 34 32 30 27 23 23 23 22 20 20 22 23 24 24 24 29 37 44 46 49 55 60 60 59 58 57 54 51 51 52 53 52 49 46 44 43 43 44 45 45 47 47 46 46 46 48 49 50 49 48 47 47 46 47 50 52 53 54 56 58 57 57 57 58 59 61 61 62 62
46 47 47 48 48 48 48 48 48 48 48 47 43 39 35 32 30 29 28 25 22 21 22 22 21 20 20 21 22 22 23 26 34 40 40 43 49 54 55 55 56 58 57 55 52 50 50 50 48 46 44 42 40 40 40 41 45 47 47 47 48 50 49 48 47 47 47 47 47 49 51 52 53 54 54 54 54 55 56 57 58 60 62 62 62
46 46 46 46 46 45 45 46 47 46 46 44 39 34 31 28 26 27 26 25 24 22 21 22 24 23 21 20 20 21 21 24 32 38 36 36 43 48 49 50 51 55 58 58 56 53 50 49 49 48 45 42 39 37 38 39 41 44 45 48 49 49 48 47 47 47 47 48 48 50 51 51 51 51 50 51 52 54 55 56 58 60 62 62 61
45 44 44 43 42 42 43 45 45 45 43 39 34 29 26 24 24 25 25 25 25 23 21 20 22 23 23 22 20 19 21 23 29 34 35 34 38 42 43 44 47 50 54 56 54 51 48 48 50 51 48 43 39 37 38 40 41 42 44 46 46 46 47 47 47 48 48 48 49 49 49 47 46 47 48 50 52 53 55 56 58 59 60 61 61
42 42 41 39 39 40 42 43 44 43 40 34 28 24 22 22 23 23 23 23 24 24 23 19 16 18 22 23 21 20 21 23 25 31 36 35 34 36 39 41 42 44 47 49 48 46 46 49 52 51 47 42 38 38 39 41 42 42 43 43 42 43 45 46 47 47 48 48 47 46 44 42 43 45 47 49 50 52 54 56 57 59 59 60 61
39 39 37 37 37 38 40 42 42 41 35 28 23 21 20 21 21 21 22 22 22 23 23 20 15 15 18 21 21 19 19 22 23 26 33 36 33 32 36 40 42 42 43 43 44 45 46 48 48 45 41 39 38 39 42 44 44 44 43 42 41 41 43 44 45 45 46 45 43 40 40 40 42 45 46 47 49 51 53 55 56 57 58 59 60
36 35 34 34 35 37 39 41 40 37 30 23 18 17 18 19 18 19 21 20 19 19 19 19 15 14 16 18 19 18 19 22 22 21 24 29 31 30 31 35 39 41 41 42 42 43 41 39 37 36 36 36 38 40 43 44 44 44 43 41 40 40 41 41 42 43 42 40 37 37 39 40 42 43 44 45 47 50 53 54 55 56 57 58 57
32 31 31 32 33 35 38 39 36 30 22 16 14 14 16 16 15 15 15 15 16 14 14 16 11 10 14 16 17 18 19 20 20 17 18 22 25 26 27 30 35 39 41 42 39 35 32 30 30 32 34 36 39 42 43 42 42 42 41 39 38 38 38 39 40 39 37 35 35 37 39 40 41 41 42 44 47 50 52 53 54 56 57 57 55
28 28 28 29 31 34 36 35 29 21 16 14 14 14 12 11 11 12 14 12 9 8 11 9 6 7 10 13 15 17 18 18 18 18 19 21 22 24 26 30 35 38 38 36 30 25 25 27 29 32 36 38 40 41 41 41 40 39 38 37 36 36 37 37 36 35 33 34 35 37 38 38 39 40 41 44 47 49 51 51 53 56 55 54 53
26 26 26 28 31 34 34 28 20 15 15 15 13 9 7 8 11 14 12 6 4 8 4 4 6 3 6 9 12 17 18 18 19 21 22 22 23 24 25 28 31 31 28 24 22 21 23 27 31 34 37 38 38 39 39 39 37 35 34 34 34 34 34 33 32 32 32 33 35 36 36 36 37 39 42 44 46 47 48 50 52 54 52 51 50
24 25 26 28 31 33 28 20 15 15 16 13 7 5 7 11 12 10 5 2 5 2 4 7 3 3 6 8 11 15 16 16 18 20 21 22 22 23 23 24 24 22 20 18 18 20 24 28 31 33 33 33 34 34 35 34 32 31 31 31 31 31 30 30 30 30 32 33 34 34 34 34 36 39 42 43 44 45 47 49 51 51 50 49 49
23 24 26 28 31 29 20 14 14 16 14 8 4 6 11 14 13 8 6 6 2 2 5 4 2 6 8 10 11 12 13 14 14 15 16 18 21 22 22 21 19 17 16 16 18 22 26 28 28 27 26 27 28 28 29 29 29 28 28 28 28 28 28 28 29 30 31 32 32 32 33 34 36 39 41 41 42 43 45 48 49 48 47 47 47
22 23 25 28 28 22 13 12 14 13 9 6 6 8 12 15 13 7 7 7 4 2 4 4 4 9 12 12 12 11 11 10 11 12 14 17 20 20 19 17 15 15 16 18 21 25 26 24 22 21 22 23 23 24 25 26 26 26 26 26 26 26 27 28 29 30 30 30 31 31 33 35 37 39 39 40 40 42 44 46 45 44 44 45 45
21 22 24 27 24 15 9 11 11 9 8 7 7 9 12 14 13 7 7 9 7 5 6 5 6 9 11 12 12 11 10 8 9 12 14 16 18 17 15 15 15 15 17 20 23 25 23 20 19 19 19 19 20 22 24 25 25 24 24 24 24 25 26 27 28 29 29 29 30 31 33 35 37 38 38 38 40 42 43 43 42 41 41 42 42
20 21 24 25 19 9 7 10 9 7 8 7 8 9 11 12 12 9 8 9 8 5 4 5 7 7 8 9 11 12 11 10 11 13 15 15 15 15 15 15 15 16 17 20 23 23 20 18 17 17 17 18 18 20 22 22 21 21 21 21 22 23 24 26 26 27 27 28 29 31 33 36 37 37 37 38 40 41 42 41 39 38 38 39 40
18 20 23 22 14 5 6 8 7 7 7 7 8 9 11 11 11 9 9 8 7 4 2 2 4 5 5 7 10 11 11 11 13 15 16 16 15 16 17 17 17 18 19 20 21 21 18 17 16 16 16 17 17 17 18 17 17 18 18 19 21 22 23 24 25 25 26 27 29 31 34 35 35 36 37 38 39 40 40 39 37 35 35 36 38
17 19 21 19 9 3 6 7 6 6 5 5 6 8 9 10 9 8 8 8 7 6 3 2 1 2 3 5 8 10 11 11 13 15 16 17 17 18 20 20 20 20 20 20 20 19 18 17 17 16 16 16 15 15 15 15 16 16 17 18 20 21 22 22 23 24 25 27 29 32 33 34 34 35 37 38 39 39 39 37 36 34 33 33 34
15 18 20 16 5 3 6 6 6 6 5 4 5 6 8 10 10 9 9 9 8 6 4 4 4 3 4 4 7 9 9 9 11 14 16 18 19 20 21 20 19 19 19 19 19 19 19 18 17 17 16 15 14 14 14 15 15 15 16 18 19 20 21 21 22 23 25 27 30 32 32 33 34 35 37 38 39 38 37 36 35 33 32 31 32
14 17 19 14 3 5 7 6 6 6 6 5 5 7 8 11 13 13 12 10 9 7 5 3 4 5 5 5 5 6 6 6 8 10 13 15 17 18 18 17 16 17 17 17 17 18 18 18 18 17 16 15 15 15 15 15 15 15 16 17 18 19 19 20 21 23 25 28 29 30 31 32 33 35 36 37 37 37 35 34 33 33 31 31 31
12 16 18 12 2 7 7 6 6 6 6 6 7 9 10 12 13 14 14 13 12 10 8 3 2 6 7 7 7 7 6 6 6 8 10 12 13 14 14 13 13 13 13 13 14 15 16 17 17 17 17 16 16 15 15 15 15 15 16 16 17 17 18 20 22 24 26 27 29 29 30 31 33 34 35 36 36 35 34 33 32 31 31 30 31
11 14 17 12 3 9 7 6 5 5 5 6 8 10 11 11 12 13 14 14 14 12 9 6 1 5 9 11 11 11 10 9 8 8 9 11 11 12 12 12 12 12 11 11 12 14 15 16 17 17 17 17 16 15 15 15 15 15 15 15 16 17 18 20 22 24 26 27 28 29 30 31 32 33 34 35 35 34 33 32 31 30 30 29 30
11 13 16 12 3 10 8 5 5 5 5 5 7 9 10 10 11 11 12 13 13 10 8 7 5 2 5 8 10 12 14 14 13 12 12 13 13 13 13 13 13 13 13 13 14 15 16 16 17 17 17 16 16 16 15 15 14 14 14 14 15 17 19 21 22 24 25 26 27 28 29 30 31 32 33 33 33 32 32 31 30 30 29 28 28
10 11 14 14 5 8 10 6 4 5 5 5 5 6 7 9 10 10 10 12 12 10 11 11 8 6 5 4 4 7 11 15 16 17 17 16 15 15 16 16 16 16 15 15 16 16 17 17 16 16 15 15 15 15 14 13 12 12 12 14 16 18 19 21 22 23 25 26 26 28 29 30 31 32 32 32 32 31 31 31 30 29 29 28 28
10 11 13 15 9 6 10 8 5 5 5 5 5 4 4 7 9 10 11 11 11 12 14 15 12 9 8 7 6 4 4 9 14 18 20 20 19 19 18 18 18 17 17 16 16 17 17 16 15 14 14 14 14 13 12 11 10 11 12 14 16 18 19 21 22 23 24 25 26 27 28 29 30 31 31 31 31 31 31 30 30 30 29 29 28
10 11 13 15 11 5 10 10 6 6 6 6 5 4 4 6 9 10 11 12 12 13 16 17 16 14 12 11 10 7 4 4 6 11 17 20 21 21 20 19 19 18 17 17 17 16 15 13 12 12 12 13 12 11 10 9 10 12 13 15 16 18 19 21 22 23 24 25 26 27 28 29 30 31 31 31 31 31 31 30 30 30 30 29 29
9 10 11 13 11 6 10 11 9 8 8 7 7 7 6 7 8 9 9 11 13 14 15 16 17 17 16 14 13 11 9 7 5 4 7 11 15 17 18 17 17 16 16 15 14 13 12 11 11 11 11 11 10 9 9 9 10 12 14 15 17 19 20 21 22 23 24 25 26 27 28 29 30 31 32 32 32 32 31 31 30 30 30 30 29
9 9 10 11 10 7 10 12 11 10 10 9 9 8 8 8 8 7 7 10 12 13 14 14 15 15 14 13 12 11 10 9 7 5 4 6 8 11 13 13 14 13 13 12 11 10 9 9 9 9 8 8 8 8 8 9 11 12 14 16 18 19 20 21 22 23 24 25 27 28 29 30 31 32 32 33 33 33 32 31 31 30 30 30 30
11 10 10 10 10 8 11 14 14 13 12 12 11 9 8 8 7 5 5 8 10 11 12 12 12 13 12 11 10 10 9 7 6 4 3 3 5 7 8 9 9 9 8 7 7 7 7 7 7 6 6 6 7 7 8 10 12 14 16 17 18 19 20 21 22 23 25 26 28 29 30 31 32 32 33 34 34 34 34 33 32 31 31 31 30
12 11 10 9 9 9 10 14 16 15 14 13 12 10 8 6 5 3 3 5 7 8 9 10 11 11 11 12 11 11 9 7 5 4 2 2 4 5 5 5 5 5 5 5 5 5 5 5 5 5 5 5 6 7 10 12 13 15 16 16 17 18 19 21 22 24 26 27 29 30 31 32 33 34 35 35 35 35 35 35 34 33 32 32 32
13 11 9 8 7 8 10 14 16 15 14 13 12 10 7 5 4 3 1 1 4 6 8 9 10 10 11 12 13 12 9 7 5 4 2 3 4 4 5 4 4 4 4 4 4 4 4 4 4 4 4 5 7 10 12 13 14 14 15 16 17 18 20 21 23 25 27 28 30 31 33 34 35 36 36 37 37 37 37 37 36 35 35 34 33
12 10 8 6 5 6 8 12 15 16 14 13 11 9 7 6 5 4 3 1 3 5 7 9 10 10 11 13 16 14 10 6 5 5 3 4 5 5 4 3 3 3 4 4 4 4 3 2 2 3 5 7 9 11 12 12 13 14 15 16 17 19 20 23 25 26 28 30 32 33 34 35 36 37 38 39 39 39 39 39 38 38 37 36 35
10 10 7 4 3 4 6 10 14 16 15 13 12 10 9 8 7 6 4 3 3 5 6 8 10 10 11 14 17 14 9 7 7 7 6 5 5 5 4 3 3 4 5 5 4 3 1 1 2 5 7 9 10 10 11 11 12 13 14 16 18 20 22 24 26 28 30 32 33 35 36 37 38 39 40 41 41 41 41 41 41 40 40 39 38
7 8 7 4 2 2 3 6 9 13 15 15 14 13 11 10 9 7 5 3 2 4 6 8 9 10 11 15 16 13 9 9 9 8 8 7 7 7 7 7 6 6 5 4 3 2 2 3 5 6 7 8 9 9 10 11 12 13 15 17 19 21 24 25 27 29 31 33 35 37 38 39 41 41 42 43 43 44 44 44 43 43 43 42 42
5 5 5 3 1 1 2 3 5 8 10 12 13 12 12 11 10 8 6 4 2 4 6 8 9 10 13 16 15 11 10 11 11 11 11 11 11 11 10 9 8 6 5 4 3 2 2 3 5 6 6 7 8 9 10 11 13 15 17 19 21 23 25 27 29 31 33 35 37 38 40 41 42 43 44 45 45 46 46 46 46 46 46 46 45
4 3 3 2 1 1 2 2 3 4 5 5 6 8 9 9 8 7 6 5 2 2 5 6 8 10 14 15 14 11 12 13 13 13 13 12 12 11 10 9 7 6 4 3 2 2 2 3 4 5 6 7 8 10 12 14 15 17 19 21 23 25 27 29 31 33 35 37 39 40 42 43 44 45 46 47 48 48 49 49 49 49 48 48 47
5 3 2 1 1 1 2 2 1 1 1 1 2 3 5 7 7 6 5 4 2 1 4 6 8 11 14 14 13 13 13 13 12 12 12 11 10 9 8 7 5 5 4 4 4 4 5 5 6 6 7 9 10 12 13 15 16 18 20 22 24 27 29 31 33 35 37 39 41 42 43 44 46 47 48 49 50 50 50 49 49 48 47 46 45
5 3 2 1 1 1 2 2 2 2 2 2 3 2 2 6 7 7 6 5 4 5 6 7 9 12 14 14 13 13 13 12 10 9 9 8 7 6 6 6 6 7 7 7 7 7 7 7 7 8 9 11 12 13 15 16 18 20 22 24 26 28 31 33 35 37 39 40 42 43 45 46 47 48 49 49 49 48 47 46 45 44 44 43 43
Wind_Direction
289 286 282 278 275 274 273 272 272 271 270 267 265 263 262 262 262 261 259 258 257 256 256 256 255 253 253 253 255 256 257 257 258 259 259 257 257 258 257 257 258 260 261 261 260 259 257 255 256 257 259 260 260 260 260 260 259 259 259 258 257 255 254 252 252 252 253 255 258 260 263 264 267 269 270 272 275 277 280 282 284 286 289 290 290
297 295 292 287 284 280 278 276 275 274 272 271 268 266 263 262 261 261 260 259 257 256 255 255 255 254 253 253 253 253 254 255 256 256 256 255 255 255 255 256 258 259 261 261 258 256 254 254 254 256 258 259 259 260 260 259 259 258 258 258 257 255 252 250 250 251 252 255 258 261 263 265 266 268 269 271 274 277 279 282 285 287 289 290 290
300 299 297 295 292 288 285 281 279 278 276 275 273 271 269 266 263 261 260 259 258 257 255 254 253 253 253 252 252 251 252 253 252 253 254 254 253 252 253 256 258 259 261 260 254 252 253 253 254 257 259 258 258 258 259 260 259 258 258 258 257 256 254 252 252 252 253 256 259 261 262 265 266 268 270 272 274 277 279 282 285 288 289 289 290
304 304 301 299 296 294 292 290 290 289 287 284 282 279 276 272 268 265 262 260 258 257 256 255 253 251 250 250 249 249 249 249 249 248 249 250 250 249 250 253 256 258 259 257 252 250 252 252 255 258 258 256 256 256 258 259 259 259 259 259 259 259 258 257 257 257 259 260 261 261 262 265 267 269 271 272 275 277 280 283 286 288 288 289 290
310 308 305 302 301 298 297 298 299 301 301 300 298 294 290 284 277 271 266 262 259 257 255 254 253 251 249 247 247 246 244 244 245 245 244 244 246 247 247 250 254 257 258 255 250 248 251 253 254 255 254 253 254 254 255 257 258 260 262 262 263 263 263 263 263 263 263 264 263 263 264 265 268 270 272 273 275 277 280 283 286 287 287 288 290
312 310 308 307 305 303 304 306 308 309 309 309 308 306 304 299 292 282 273 267 262 259 256 255 253 251 249 246 245 244 242 241 241 243 242 241 242 244 246 249 253 257 257 252 247 247 249 252 253 251 250 250 251 253 255 256 257 260 263 265 267 268 267 267 267 266 265 265 265 264 265 267 269 271 272 274 276 278 281 284 285 286 287 288 290
315 314 314 313 311 310 311 312 313 313 313 313 313 311 308 305 300 294 285 275 267 262 258 256 253 251 249 246 244 242 240 239 239 241 241 240 240 242 245 248 252 257 257 249 244 246 248 250 252 250 248 248 249 251 252 252 255 261 266 270 272 272 270 268 267 267 267 266 266 266 266 267 269 270 272 274 277 279 281 283 284 285 287 288 290
317 316 316 315 315 315 314 314 314 314 315 315 314 313 311 308 304 299 293 285 276 268 263 259 255 251 249 247 245 242 239 237 236 237 239 240 239 240 243 246 250 255 256 249 243 247 248 248 250 249 247 247 246 246 248 251 259 267 271 274 275 276 275 273 270 268 267 266 266 266 267 267 269 271 273 275 277 280 281 282 284 285 287 289 291
315 314 315 315 315 315 314 314 314 313 315 315 315 313 312 309 306 303 298 291 283 276 271 265 260 255 251 247 244 243 241 237 233 233 236 237 236 237 240 243 246 251 253 248 243 246 247 246 249 248 245 244 243 243 248 255 263 270 273 276 277 279 279 278 274 271 269 269 267 267 269 270 272 273 274 276 278 280 281 283 285 286 287 290 292
313 312 313 314 314 314 314 314 313 312 313 314 313 312 311 309 307 304 300 294 287 281 277 273 266 261 256 251 246 241 240 239 234 232 233 233 232 232 236 239 242 246 249 246 242 243 245 245 248 247 243 242 242 245 251 258 264 270 274 277 279 280 281 280 277 273 271 271 270 269 272 274 275 275 275 276 278 280 282 284 286 288 289 291 292
311 311 311 311 311 312 312 312 311 311 311 312 312 311 310 308 306 303 300 295 289 284 280 276 269 264 259 255 251 244 240 237 234 230 230 231 229 229 231 235 237 241 244 242 239 240 242 245 246 244 242 242 242 246 252 257 262 268 273 276 279 281 281 280 278 274 271 272 272 272 274 275 275 275 275 276 279 282 285 286 288 289 291 292 292
309 309 309 309 309 309 309 309 309 309 309 311 312 311 309 306 304 301 298 294 290 284 279 275 268 264 261 256 254 251 242 236 232 227 227 229 229 227 227 230 233 236 237 236 236 238 241 243 243 242 242 242 242 246 251 257 263 269 271 274 278 281 281 279 277 273 270 271 273 273 274 274 274 275 276 279 282 285 287 288 289 291 292 292 293
308 307 307 307 307 307 308 307 308 309 309 311 311 309 306 305 301 298 295 292 289 285 280 276 269 264 262 257 256 254 246 238 231 226 225 228 229 228 226 226 228 231 232 232 234 239 242 243 242 242 242 241 242 246 252 258 265 269 270 273 276 280 281 279 275 270 269 270 272 272 273 274 275 277 279 282 285 287 289 290 290 291 292 292 293
305 305 306 306 306 306 306 306 307 309 310 311 311 308 304 303 299 295 292 289 287 286 283 279 273 268 266 265 264 261 253 242 230 224 226 229 229 229 227 225 225 227 230 231 232 238 243 243 241 240 239 239 243 249 255 260 265 268 272 273 274 279 280 277 272 269 268 269 270 271 272 275 277 280 282 284 287 288 289 290 290 290 291 293 295
302 303 304 305 305 305 304 305 308 310 311 312 311 306 303 301 297 292 289 284 280 280 281 274 266 265 265 265 267 266 259 246 229 223 227 231 229 229 229 227 225 225 229 232 231 235 240 241 239 239 238 241 248 253 257 261 263 267 272 272 274 278 278 273 269 268 268 269 270 271 274 276 279 281 283 285 287 288 289 290 290 290 292 295 297
301 303 304 304 304 303 303 305 308 310 312 312 310 305 302 300 295 290 286 279 271 271 273 264 255 258 259 256 257 257 257 248 231 223 225 230 229 228 229 230 227 226 229 233 233 233 237 238 238 239 242 246 252 257 260 263 264 267 270 271 275 277 273 268 267 267 267 269 271 273 275 278 280 282 283 285 287 288 289 289 290 292 294 296 299
302 303 304 303 302 302 304 307 309 311 313 312 308 303 301 300 296 289 285 279 269 264 267 261 253 254 257 253 251 249 248 246 235 224 221 225 226 226 228 229 228 227 230 233 235 237 240 241 242 243 246 248 253 259 264 266 266 266 268 270 272 271 267 265 265 264 266 269 272 274 277 279 281 282 284 286 287 288 290 291 293 295 297 299 301
303 304 305 303 302 303 306 308 310 312 313 311 305 301 301 300 296 291 288 283 273 263 260 258 252 250 251 250 250 247 240 239 237 228 221 223 225 223 224 227 227 229 232 235 237 240 243 246 247 247 248 249 254 261 264 266 266 265 265 266 266 265 264 263 262 263 266 269 272 275 277 279 281 283 285 287 289 290 292 294 296 298 300 302 302
304 305 304 303 303 305 308 310 312 314 313 309 303 300 300 299 298 297 294 288 280 267 254 248 249 250 248 245 245 245 237 231 233 229 224 226 229 225 223 225 227 230 234 236 238 240 242 245 247 246 247 250 257 264 265 266 267 266 263 264 265 265 264 262 262 264 266 269 272 275 277 279 282 285 287 289 290 293 295 296 298 300 302 303 304
306 305 303 303 306 309 311 313 314 315 313 307 302 300 301 302 302 302 299 292 286 272 252 239 241 250 250 245 242 243 238 228 227 228 227 231 234 231 227 228 229 231 234 236 239 241 242 243 243 244 248 255 261 264 264 265 266 265 262 263 265 266 264 263 263 264 266 269 272 275 278 281 284 287 289 290 293 295 297 299 301 302 304 305 306
306 304 303 306 309 312 314 316 317 317 314 309 305 303 305 308 307 306 304 296 288 276 248 227 229 244 249 244 236 232 230 222 218 221 225 228 231 230 229 229 228 228 230 232 235 237 238 240 242 247 255 259 261 262 262 263 263 263 261 262 264 265 263 262 262 263 266 270 273 276 280 283 286 288 290 293 296 298 299 301 303 304 304 306 309
307 306 307 311 314 316 318 318 319 319 318 316 314 312 313 316 317 319 320 307 290 267 223 207 222 245 241 237 232 226 221 212 207 209 217 222 224 225 225 224 221 222 224 226 228 231 235 241 249 255 259 261 261 261 261 260 261 261 260 261 262 261 259 260 261 264 267 271 274 278 282 285 288 290 293 296 298 299 301 303 305 305 307 310 313
311 311 314 317 319 321 321 321 322 324 326 325 322 320 322 328 337 343 338 316 278 213 186 201 255 259 227 224 222 212 204 201 202 208 215 218 219 220 220 218 216 216 218 220 223 229 238 248 255 258 259 259 259 257 256 257 258 258 258 258 258 257 257 260 262 265 268 271 275 280 283 286 289 292 295 297 299 301 304 305 307 309 312 314 316
315 317 320 323 325 325 324 325 328 331 331 327 324 327 341 352 352 348 339 318 185 160 166 297 307 257 200 203 200 193 192 197 204 207 209 212 215 216 215 211 208 208 209 214 222 234 244 252 255 256 255 254 254 253 254 255 255 255 255 255 255 256 257 260 262 265 269 273 277 281 283 286 289 293 296 298 301 304 306 308 310 313 314 316 316
320 323 327 329 329 328 326 330 337 338 336 333 336 4 13 8 3 358 3 101 143 154 332 335 338 163 174 177 178 184 195 204 206 203 202 206 207 205 202 198 195 197 204 216 228 239 247 250 250 249 250 251 253 253 253 253 251 250 252 252 253 254 257 259 263 267 272 275 279 281 283 286 290 294 297 300 303 306 308 311 313 315 315 316 317
324 329 332 333 332 330 331 341 349 348 348 355 40 48 28 20 20 33 85 107 119 317 344 6 110 154 168 172 173 184 201 212 213 205 198 195 191 188 187 188 190 198 212 225 235 239 242 243 244 247 251 252 252 250 248 247 246 247 249 251 252 255 259 263 267 271 274 277 279 281 283 287 291 295 298 301 305 308 311 313 315 315 316 317 317
329 333 336 336 335 333 341 357 359 2 13 40 59 40 22 20 26 53 105 109 103 41 31 50 129 152 160 168 173 183 196 208 212 203 189 180 178 178 182 187 194 206 217 225 231 234 235 238 243 250 253 252 251 248 244 243 244 245 248 251 255 260 264 268 271 273 275 277 279 281 285 290 294 297 300 304 307 310 312 314 315 315 315 316 317
333 337 339 340 338 340 2 11 11 27 47 52 42 24 18 25 35 62 111 111 102 88 67 71 118 147 161 167 169 176 181 181 183 183 180 176 175 176 183 190 198 207 213 220 228 232 235 239 245 250 251 251 250 246 243 243 244 247 252 257 262 266 269 271 272 274 275 277 279 283 288 292 295 298 302 306 308 311 313 315 315 315 314 315 317
336 340 343 343 341 350 26 24 29 52 52 36 26 27 38 50 55 69 99 106 102 94 70 72 97 122 146 156 160 170 175 171 170 174 179 180 178 179 187 195 202 209 214 221 229 234 235 238 243 247 249 250 248 244 242 244 248 253 259 264 268 270 271 272 273 274 276 278 282 287 291 295 298 301 304 307 309 312 314 315 315 314 314 315 318
339 342 347 347 345 10 49 36 41 54 43 29 28 33 46 61 71 85 100 104 105 107 87 53 80 104 127 144 158 172 179 182 184 187 191 192 190 191 198 206 213 218 221 224 228 230 232 235 241 246 250 252 250 247 247 251 256 262 267 269 271 272 272 273 273 275 277 281 286 290 294 297 301 304 306 308 310 313 315 315 315 314 314 316 319
343 345 351 351 350 52 60 40 42 47 40 43 50 41 35 43 61 88 105 104 104 115 150 206 214 161 158 150 156 169 180 188 194 199 202 203 203 204 208 214 219 223 225 226 227 228 231 234 241 248 253 256 256 256 259 263 267 271 272 273 273 273 272 273 273 275 280 285 290 294 297 300 304 306 307 309 312 315 316 316 315 315 315 317 320
348 349 355 356 0 98 75 55 49 43 38 48 52 37 29 39 58 80 90 89 87 99 143 191 220 225 208 179 164 166 174 182 189 195 201 203 205 208 212 217 220 223 225 225 226 228 231 235 243 250 256 260 262 264 268 270 271 273 274 274 275 273 272 273 275 278 285 290 294 297 301 303 305 306 308 311 314 316 317 316 315 316 316 318 321
353 355 359 0 24 125 96 73 59 44 43 50 46 41 49 61 71 76 75 74 72 76 99 161 210 223 221 211 193 186 188 187 186 191 197 200 202 205 211 216 220 222 225 227 228 231 234 240 247 253 258 263 266 268 272 273 273 275 275 275 274 272 271 274 277 283 289 293 297 301 303 305 306 307 309 313 315 316 317 316 316 317 317 319 322
359 1 5 6 90 139 109 84 75 60 55 60 58 61 70 77 80 79 74 69 62 51 42 31 232 221 224 228 223 218 220 217 203 197 199 203 205 206 209 216 222 226 230 232 235 239 243 247 253 258 261 266 269 272 275 275 275 276 275 273 272 271 272 276 282 288 293 297 300 303 304 304 306 308 311 314 315 316 317 317 317 317 317 319 322
3 6 9 11 115 151 129 97 94 86 74 75 76 79 84 86 83 79 72 61 50 39 29 22 350 223 224 229 232 233 235 235 229 217 209 211 214 214 216 222 228 233 238 244 250 255 257 258 260 263 265 269 273 276 277 276 275 275 273 269 269 270 275 281 287 293 298 301 303 304 304 305 308 311 313 315 315 316 318 318 318 318 317 318 320
6 10 13 16 92 159 150 120 105 99 95 102 99 93 91 87 81 77 69 55 44 39 43 45 50 141 193 209 221 227 231 233 235 231 224 220 220 219 221 226 232 236 244 254 262 266 265 262 261 262 264 269 274 277 277 276 274 272 267 266 268 273 279 286 292 297 301 303 303 303 304 307 310 312 313 314 315 316 317 318 317 317 315 316 317
9 13 19 21 53 157 162 147 121 108 113 130 124 104 91 83 78 74 69 57 46 42 49 54 61 84 110 131 167 204 221 226 229 231 230 227 225 225 226 228 231 237 244 251 257 262 263 261 259 261 266 272 276 278 277 274 269 264 261 264 271 278 285 293 298 301 303 302 302 304 306 309 311 312 313 314 315 316 317 317 317 316 315 314 315
15 18 26 27 40 142 165 164 147 123 126 141 143 121 86 72 69 69 66 59 48 43 46 52 61 77 88 90 94 115 193 215 221 226 229 228 227 228 228 228 231 237 242 246 252 258 260 259 260 264 271 277 281 281 277 267 258 257 261 268 277 286 294 299 301 302 302 302 304 306 308 310 311 312 313 315 316 317 317 317 317 316 315 313 313
23 24 31 32 39 117 162 166 159 141 137 145 147 133 95 72 74 78 72 61 52 49 47 45 45 51 58 62 63 68 90 145 189 211 220 223 226 228 228 230 233 236 240 244 249 254 256 257 262 269 276 281 283 278 267 255 252 259 270 280 289 295 299 301 302 302 302 304 306 308 310 311 312 313 314 315 317 317 317 317 316 314 313 312 311
36 30 34 36 42 102 154 161 159 152 148 148 146 135 112 91 90 89 75 59 55 55 53 45 38 38 43 46 45 45 51 64 83 132 181 201 213 220 223 226 228 230 233 238 243 248 251 257 266 274 278 278 273 262 250 250 260 273 285 293 298 300 301 302 302 303 304 306 308 310 311 311 312 314 315 316 317 317 317 316 315 313 311 310 309
46 36 37 42 53 100 149 158 158 157 156 155 152 143 130 118 111 97 74 64 62 59 55 47 39 36 37 40 40 39 39 41 46 62 105 151 180 195 204 210 214 219 225 231 236 244 254 264 270 271 268 261 251 245 250 264 280 292 297 300 301 301 302 303 303 305 307 309 310 311 311 312 314 315 316 317 317 317 317 315 314 312 309 308 307
51 39 34 42 62 100 146 160 163 162 162 161 158 152 143 135 127 106 77 70 64 55 48 43 36 32 30 31 35 37 36 37 44 52 74 131 161 176 187 194 200 208 218 228 241 256 266 268 261 249 240 237 241 254 273 289 298 301 301 301 302 302 303 304 306 309 310 311 312 312 313 314 315 316 317 317 317 316 316 314 313 311 308 306 305
52 43 32 36 60 97 140 163 169 169 168 167 165 163 157 149 143 131 95 70 57 47 40 33 30 27 23 22 26 30 28 29 43 56 85 161 166 168 180 191 200 208 217 232 248 257 253 243 231 225 228 242 264 286 298 302 302 301 301 302 303 304 307 309 311 313 313 313 314 314 315 316 316 316 316 316 316 315 314 313 312 310 308 306 304
52 49 37 33 55 94 136 164 173 175 176 176 175 176 178 179 177 178 171 46 38 34 28 23 24 24 19 15 18 21 21 24 41 61 103 169 172 168 175 189 204 212 215 220 221 214 204 204 213 227 252 279 296 302 302 301 301 301 303 305 307 309 313 315 315 316 315 315 315 315 315 316 316 316 315 315 314 313 313 312 311 309 308 306 303
50 53 48 36 49 92 136 165 178 182 184 186 189 195 203 208 208 216 235 283 5 19 19 19 21 21 16 12 14 16 18 30 52 70 101 147 164 166 168 177 192 196 189 183 179 177 178 191 230 280 299 304 304 302 300 302 304 305 307 311 315 318 319 319 318 317 316 316 315 315 315 315 314 314 314 313 313 312 312 311 310 309 307 305 303
46 52 56 50 52 88 132 165 183 192 197 201 204 210 217 221 225 233 247 272 339 12 18 15 16 18 18 15 14 16 25 47 64 78 100 124 142 148 147 146 149 153 152 149 146 141 124 353 317 311 308 303 301 302 304 307 310 313 317 321 323 323 321 319 318 317 316 315 314 314 314 313 313 313 312 312 311 311 310 309 309 308 306 305 304
42 48 54 58 62 102 135 162 182 196 207 215 219 223 228 233 238 246 253 264 324 16 20 10 9 18 23 20 18 22 41 60 67 76 89 99 106 110 110 114 119 121 119 111 97 70 21 339 317 308 305 304 307 311 314 316 320 324 326 326 324 322 320 318 317 316 315 314 313 313 312 313 312 312 311 311 310 310 309 308 307 306 305 303 302
31 42 49 50 56 190 177 169 176 192 208 219 225 229 233 236 241 246 246 245 294 11 12 6 11 26 31 26 25 37 61 70 72 78 84 90 95 98 98 100 99 96 91 85 69 35 347 322 314 314 317 320 321 324 327 330 331 331 328 325 322 320 319 317 317 316 315 314 313 312 312 312 312 311 311 311 310 310 309 308 306 305 304 302 300
12 29 41 24 306 235 215 204 187 186 197 209 217 223 225 227 230 232 226 223 246 349 7 13 24 34 35 32 36 54 71 75 77 81 83 86 91 94 95 97 99 97 96 95 77 34 356 347 347 344 340 338 337 338 338 336 333 329 326 323 321 320 319 318 317 316 315 314 314 313 313 313 313 313 312 312 311 310 309 309 308 306 305 303 301
358 6 22 3 320 271 257 261 247 169 147 137 154 188 205 207 205 201 199 200 199 56 45 43 43 43 44 45 52 63 71 73 77 81 84 86 92 97 101 105 108 102 92 78 62 44 31 20 9 359 353 348 345 342 338 334 330 326 324 323 322 321 320 319 317 317 317 316 316 315 315 315 315 314 314 313 313 312 312 311 310 309 308 306 305
356 11 37 41 15 323 305 322 358 22 38 56 69 87 157 182 180 173 165 158 137 104 82 68 59 56 56 58 61 64 65 66 69 77 84 89 94 99 99 93 85 77 69 62 54 45 33 21 10 1 355 349 343 338 334 330 328 326 325 324 323 322 321 320 319 319 319 318 318 318 318 317 317 316 316 316 316 316 316 315 314 314 313 311 309